Time,TemperatureF,DewpointF,PressureIn,WindDirection,WindDirectionDegrees,WindSpeedMPH,WindSpeedGustMPH,Humidity,HourlyPrecipIn,Conditions,Clouds,dailyrainin,SolarRadiationWatts/m^2,SoftwareType,DateUTC
2013-01-17 00:06:00,34.7,18.0,30.40,SSW,209,0.0,0.0,50,0.00,,,0.00,0,weatherlink.com 1.10,2013-01-17 07:06:00,
2013-01-17 00:21:00,34.8,18.0,30.40,SSW,209,0.0,0.0,50,0.00,,,0.00,0,weatherlink.com 1.10,2013-01-17 07:21:00,
2013-01-17 00:36:00,33.2,17.0,30.39,SSW,209,0.0,3.0,52,0.00,,,0.00,0,weatherlink.com 1.10,2013-01-17 07:36:00,
2013-01-17 00:51:00,33.6,17.0,30.39,SSW,209,0.0,2.0,51,0.00,,,0.00,0,weatherlink.com 1.10,2013-01-17 07:51:00,
2013-01-17 01:06:00,29.0,15.0,30.40,SSW,209,0.0,0.0,57,0.00,,,0.00,0,weatherlink.com 1.10,2013-01-17 08:06:00,
2013-01-17 01:21:00,27.4,16.0,30.41,SSW,209,0.0,0.0,63,0.00,,,0.00,0,weatherlink.com 1.10,2013-01-17 08:21:00,
2013-01-17 01:36:00,26.3,16.0,30.41,SE,140,0.0,0.0,66,0.00,,,0.00,0,weatherlink.com 1.10,2013-01-17 08:36:00,
2013-01-17 01:51:00,25.7,16.0,30.41,SE,140,0.0,0.0,67,0.00,,,0.00,0,weatherlink.com 1.10,2013-01-17 08:51:00,
2013-01-17 02:06:00,26.0,17.0,30.41,SE,140,0.0,0.0,68,0.00,,,0.00,0,weatherlink.com 1.10,2013-01-17 09:06:00,
2013-01-17 02:21:00,27.9,16.0,30.41,SSE,148,0.0,0.0,61,0.00,,,0.00,0,weatherlink.com 1.10,2013-01-17 09:21:00,
2013-01-17 02:36:00,28.4,15.0,30.42,SSE,149,0.0,0.0,58,0.00,,,0.00,0,weatherlink.com 1.10,2013-01-17 09:36:00,
2013-01-17 02:51:00,26.4,15.0,30.42,SSE,148,0.0,0.0,63,0.00,,,0.00,0,weatherlink.com 1.10,2013-01-17 09:51:00,
2013-01-17 03:06:00,24.7,16.0,30.42,SSE,149,0.0,0.0,69,0.00,,,0.00,0,weatherlink.com 1.10,2013-01-17 10:06:00,
2013-01-17 03:21:00,25.9,15.0,30.43,SSE,148,0.0,0.0,64,0.00,,,0.00,0,weatherlink.com 1.10,2013-01-17 10:21:00,
2013-01-17 03:36:00,26.1,15.0,30.44,SSE,157,0.0,0.0,64,0.00,,,0.00,0,weatherlink.com 1.10,2013-01-17 10:36:00,
2013-01-17 03:51:00,26.7,15.0,30.43,SW,215,0.0,2.0,61,0.00,,,0.00,0,weatherlink.com 1.10,2013-01-17 10:51:00,
2013-01-17 04:06:00,25.8,15.0,30.44,SW,215,0.0,0.0,63,0.00,,,0.00,0,weatherlink.com 1.10,2013-01-17 11:06:00,
2013-01-17 04:21:00,27.8,16.0,30.44,SW,219,2.0,3.0,61,0.00,,,0.00,0,weatherlink.com 1.10,2013-01-17 11:21:00,
2013-01-17 04:36:00,27.4,15.0,30.44,SW,219,0.0,0.0,59,0.00,,,0.00,0,weatherlink.com 1.10,2013-01-17 11:36:00,
2013-01-17 04:51:00,28.2,16.0,30.43,WSW,240,2.0,4.0,60,0.00,,,0.00,0,weatherlink.com 1.10,2013-01-17 11:51:00,
2013-01-17 05:06:00,26.5,16.0,30.43,West,271,0.0,4.0,64,0.00,,,0.00,0,weatherlink.com 1.10,2013-01-17 12:06:00,
2013-01-17 05:21:00,25.3,14.0,30.43,West,271,0.0,0.0,63,0.00,,,0.00,0,weatherlink.com 1.10,2013-01-17 12:21:00,
2013-01-17 05:36:00,26.5,16.0,30.44,West,271,0.0,0.0,64,0.00,,,0.00,0,weatherlink.com 1.10,2013-01-17 12:36:00,
2013-01-17 05:51:00,29.9,16.0,30.44,West,271,2.0,3.0,57,0.00,,,0.00,0,weatherlink.com 1.10,2013-01-17 12:51:00,
2013-01-17 06:06:00,28.2,16.0,30.44,West,271,0.0,2.0,60,0.00,,,0.00,0,weatherlink.com 1.10,2013-01-17 13:06:00,
2013-01-17 06:21:00,26.8,16.0,30.44,West,271,0.0,1.0,63,0.00,,,0.00,0,weatherlink.com 1.10,2013-01-17 13:21:00,
2013-01-17 06:36:00,29.7,16.0,30.45,West,271,0.0,0.0,58,0.00,,,0.00,0,weatherlink.com 1.10,2013-01-17 13:36:00,
2013-01-17 06:51:00,28.7,16.0,30.45,West,271,0.0,2.0,59,0.00,,,0.00,0,weatherlink.com 1.10,2013-01-17 13:51:00,
2013-01-17 07:06:00,27.2,16.0,30.45,West,271,0.0,0.0,62,0.00,,,0.00,0,weatherlink.com 1.10,2013-01-17 14:06:00,
2013-01-17 07:21:00,26.7,16.0,30.45,West,271,0.0,0.0,64,0.00,,,0.00,5,weatherlink.com 1.10,2013-01-17 14:21:00,
2013-01-17 07:36:00,27.6,15.0,30.46,West,271,0.0,0.0,60,0.00,,,0.00,11,weatherlink.com 1.10,2013-01-17 14:36:00,
2013-01-17 07:51:00,27.8,16.0,30.46,West,271,0.0,0.0,62,0.00,,,0.00,35,weatherlink.com 1.10,2013-01-17 14:51:00,
2013-01-17 08:07:00,29.8,16.0,30.47,West,271,0.0,0.0,57,0.00,,,0.00,69,weatherlink.com 1.10,2013-01-17 15:07:00,
2013-01-17 08:22:00,29.7,17.0,30.47,West,271,0.0,0.0,59,0.00,,,0.00,113,weatherlink.com 1.10,2013-01-17 15:22:00,
2013-01-17 08:37:00,33.0,19.0,30.48,West,271,0.0,0.0,56,0.00,,,0.00,162,weatherlink.com 1.10,2013-01-17 15:37:00,
2013-01-17 08:52:00,35.2,18.0,30.48,West,271,0.0,0.0,50,0.00,,,0.00,204,weatherlink.com 1.10,2013-01-17 15:52:00,
2013-01-17 09:07:00,36.4,17.0,30.48,West,271,0.0,0.0,46,0.00,,,0.00,239,weatherlink.com 1.10,2013-01-17 16:07:00,
2013-01-17 09:22:00,39.1,18.0,30.49,West,271,0.0,0.0,42,0.00,,,0.00,272,weatherlink.com 1.10,2013-01-17 16:22:00,
2013-01-17 09:37:00,39.4,16.0,30.49,West,271,0.0,0.0,39,0.00,,,0.00,304,weatherlink.com 1.10,2013-01-17 16:37:00,
2013-01-17 09:52:00,41.6,16.0,30.49,East,92,0.0,5.0,35,0.00,,,0.00,334,weatherlink.com 1.10,2013-01-17 16:52:00,
2013-01-17 10:07:00,43.9,16.0,30.48,East,94,0.0,0.0,33,0.00,,,0.00,364,weatherlink.com 1.10,2013-01-17 17:07:00,
2013-01-17 10:22:00,43.6,16.0,30.47,NE,43,0.0,4.0,33,0.00,,,0.00,385,weatherlink.com 1.10,2013-01-17 17:22:00,
2013-01-17 10:37:00,42.2,16.0,30.47,SSE,163,0.0,4.0,35,0.00,,,0.00,410,weatherlink.com 1.10,2013-01-17 17:37:00,
2013-01-17 10:52:00,45.0,17.0,30.45,East,100,0.0,0.0,32,0.00,,,0.00,427,weatherlink.com 1.10,2013-01-17 17:52:00,
2013-01-17 11:07:00,48.1,16.0,30.44,West,265,0.0,4.0,28,0.00,,,0.00,446,weatherlink.com 1.10,2013-01-17 18:07:00,
2013-01-17 11:22:00,48.1,16.0,30.43,WSW,257,0.0,2.0,28,0.00,,,0.00,459,weatherlink.com 1.10,2013-01-17 18:22:00,
2013-01-17 11:38:00,49.0,17.0,30.42,WSW,256,2.0,3.0,28,0.00,,,0.00,468,weatherlink.com 1.10,2013-01-17 18:38:00,
2013-01-17 11:53:00,47.8,16.0,30.40,SSW,207,0.0,5.0,28,0.00,,,0.00,473,weatherlink.com 1.10,2013-01-17 18:53:00,
2013-01-17 12:08:00,50.2,19.0,30.39,SSW,202,0.0,6.0,29,0.00,,,0.00,482,weatherlink.com 1.10,2013-01-17 19:08:00,
2013-01-17 12:23:00,52.1,17.0,30.38,SSE,158,0.0,4.0,25,0.00,,,0.00,482,weatherlink.com 1.10,2013-01-17 19:23:00,
2013-01-17 12:38:00,49.6,14.0,30.36,SSE,165,4.0,8.0,24,0.00,,,0.00,482,weatherlink.com 1.10,2013-01-17 19:38:00,
2013-01-17 12:53:00,51.5,14.0,30.35,SSE,159,7.0,11.0,22,0.00,,,0.00,478,weatherlink.com 1.10,2013-01-17 19:53:00,
2013-01-17 13:08:00,49.4,14.0,30.34,SSE,155,1.0,9.0,24,0.00,,,0.00,468,weatherlink.com 1.10,2013-01-17 20:08:00,
2013-01-17 13:23:00,49.2,13.0,30.34,ESE,110,2.0,11.0,23,0.00,,,0.00,454,weatherlink.com 1.10,2013-01-17 20:23:00,
2013-01-17 13:38:00,49.4,13.0,30.33,SE,127,8.0,9.0,23,0.00,,,0.00,439,weatherlink.com 1.10,2013-01-17 20:38:00,
2013-01-17 13:53:00,49.8,13.0,30.33,South,186,5.0,9.0,23,0.00,,,0.00,418,weatherlink.com 1.10,2013-01-17 20:53:00,
2013-01-17 14:08:00,50.3,13.0,30.32,ESE,115,7.0,10.0,22,0.00,,,0.00,397,weatherlink.com 1.10,2013-01-17 21:08:00,
2013-01-17 14:23:00,51.0,13.0,30.31,SE,134,5.0,9.0,22,0.00,,,0.00,369,weatherlink.com 1.10,2013-01-17 21:23:00,
2013-01-17 14:38:00,50.2,13.0,30.31,SE,126,9.0,10.0,22,0.00,,,0.00,343,weatherlink.com 1.10,2013-01-17 21:38:00,
2013-01-17 14:53:00,50.4,12.0,30.31,South,175,5.0,10.0,21,0.00,,,0.00,315,weatherlink.com 1.10,2013-01-17 21:53:00,
2013-01-17 15:08:00,50.6,12.0,30.31,ESE,121,5.0,9.0,21,0.00,,,0.00,283,weatherlink.com 1.10,2013-01-17 22:08:00,
2013-01-17 15:23:00,53.2,15.0,30.30,SSE,163,1.0,4.0,22,0.00,,,0.00,241,weatherlink.com 1.10,2013-01-17 22:23:00,
2013-01-17 15:38:00,52.0,18.0,30.30,South,184,2.0,9.0,26,0.00,,,0.00,192,weatherlink.com 1.10,2013-01-17 22:38:00,
2013-01-17 15:53:00,51.6,14.0,30.30,South,182,0.0,4.0,22,0.00,,,0.00,141,weatherlink.com 1.10,2013-01-17 22:53:00,
2013-01-17 16:08:00,52.0,15.0,30.31,ESE,110,0.0,4.0,23,0.00,,,0.00,95,weatherlink.com 1.10,2013-01-17 23:08:00,
2013-01-17 16:23:00,53.0,14.0,30.31,ESE,112,3.0,5.0,21,0.00,,,0.00,54,weatherlink.com 1.10,2013-01-17 23:23:00,
2013-01-17 16:38:00,50.2,14.0,30.31,SE,126,0.0,0.0,23,0.00,,,0.00,25,weatherlink.com 1.10,2013-01-17 23:38:00,
2013-01-17 16:53:00,49.5,14.0,30.31,SE,126,0.0,0.0,24,0.00,,,0.00,7,weatherlink.com 1.10,2013-01-17 23:53:00,
2013-01-17 17:08:00,48.7,14.0,30.31,SE,126,0.0,0.0,25,0.00,,,0.00,0,weatherlink.com 1.10,2013-01-18 00:08:00,
2013-01-17 17:23:00,46.8,15.0,30.32,SE,126,0.0,0.0,28,0.00,,,0.00,0,weatherlink.com 1.10,2013-01-18 00:23:00,
2013-01-17 17:38:00,46.9,17.0,30.32,SE,126,0.0,0.0,30,0.00,,,0.00,0,weatherlink.com 1.10,2013-01-18 00:38:00,
2013-01-17 17:53:00,45.9,17.0,30.31,SE,142,0.0,0.0,31,0.00,,,0.00,0,weatherlink.com 1.10,2013-01-18 00:53:00,
2013-01-17 18:08:00,45.2,17.0,30.31,WSW,244,2.0,3.0,32,0.00,,,0.00,0,weatherlink.com 1.10,2013-01-18 01:08:00,
2013-01-17 18:23:00,41.3,16.0,30.31,WSW,246,0.0,3.0,36,0.00,,,0.00,0,weatherlink.com 1.10,2013-01-18 01:23:00,
2013-01-17 18:38:00,41.5,17.0,30.31,WSW,246,0.0,0.0,37,0.00,,,0.00,0,weatherlink.com 1.10,2013-01-18 01:38:00,
2013-01-17 18:53:00,38.8,15.0,30.31,WSW,246,0.0,0.0,38,0.00,,,0.00,0,weatherlink.com 1.10,2013-01-18 01:53:00,
2013-01-17 19:08:00,40.0,17.0,30.31,WSW,246,0.0,0.0,39,0.00,,,0.00,0,weatherlink.com 1.10,2013-01-18 02:08:00,
2013-01-17 19:23:00,37.3,14.0,30.31,North,355,3.0,4.0,38,0.00,,,0.00,0,weatherlink.com 1.10,2013-01-18 02:23:00,
2013-01-17 19:38:00,36.6,16.0,30.31,North,355,0.0,0.0,43,0.00,,,0.00,0,weatherlink.com 1.10,2013-01-18 02:38:00,
2013-01-17 19:53:00,35.7,15.0,30.31,North,355,0.0,0.0,42,0.00,,,0.00,0,weatherlink.com 1.10,2013-01-18 02:53:00,
2013-01-17 20:08:00,33.9,15.0,30.31,North,351,0.0,0.0,46,0.00,,,0.00,0,weatherlink.com 1.10,2013-01-18 03:08:00,
2013-01-17 20:23:00,33.9,15.0,30.30,WNW,295,1.0,3.0,46,0.00,,,0.00,0,weatherlink.com 1.10,2013-01-18 03:23:00,
2013-01-17 20:38:00,33.2,15.0,30.30,WNW,294,3.0,4.0,48,0.00,,,0.00,0,weatherlink.com 1.10,2013-01-18 03:38:00,
2013-01-17 20:53:00,33.4,15.0,30.30,WNW,294,0.0,0.0,46,0.00,,,0.00,0,weatherlink.com 1.10,2013-01-18 03:53:00,
2013-01-17 21:08:00,32.3,15.0,30.29,WNW,294,0.0,0.0,49,0.00,,,0.00,0,weatherlink.com 1.10,2013-01-18 04:08:00,
2013-01-17 21:23:00,32.7,14.0,30.29,WNW,294,0.0,0.0,47,0.00,,,0.00,0,weatherlink.com 1.10,2013-01-18 04:23:00,
2013-01-17 21:38:00,30.9,15.0,30.29,WNW,294,0.0,0.0,52,0.00,,,0.00,0,weatherlink.com 1.10,2013-01-18 04:38:00,
2013-01-17 21:53:00,31.9,15.0,30.29,WNW,294,0.0,0.0,51,0.00,,,0.00,0,weatherlink.com 1.10,2013-01-18 04:53:00,
2013-01-17 22:08:00,31.2,14.0,30.28,WNW,294,0.0,2.0,50,0.00,,,0.00,0,weatherlink.com 1.10,2013-01-18 05:08:00,
2013-01-17 22:23:00,29.4,13.0,30.27,WNW,294,0.0,0.0,51,0.00,,,0.00,0,weatherlink.com 1.10,2013-01-18 05:23:00,
2013-01-17 22:38:00,30.8,13.0,30.27,WNW,294,0.0,0.0,48,0.00,,,0.00,0,weatherlink.com 1.10,2013-01-18 05:38:00,
2013-01-17 22:53:00,29.8,12.0,30.27,WNW,294,0.0,0.0,47,0.00,,,0.00,0,weatherlink.com 1.10,2013-01-18 05:53:00,
2013-01-17 23:08:00,29.2,12.0,30.27,WNW,294,0.0,2.0,48,0.00,,,0.00,0,weatherlink.com 1.10,2013-01-18 06:08:00,
2013-01-17 23:23:00,27.5,11.0,30.26,WNW,294,0.0,3.0,51,0.00,,,0.00,0,weatherlink.com 1.10,2013-01-18 06:23:00,
2013-01-17 23:38:00,27.9,11.0,30.26,WNW,294,0.0,0.0,50,0.00,,,0.00,0,weatherlink.com 1.10,2013-01-18 06:38:00,
2013-01-17 23:53:00,26.9,11.0,30.26,WNW,294,0.0,0.0,51,0.00,,,0.00,0,weatherlink.com 1.10,2013-01-18 06:53:00,